Regional Weather Roundup
Issued by NWS

Home | Current Version | Previous Version | Graphics & Text | Print | Product List | Glossary On
Versions: 1 2 3 4 5 6 7 8 9 10 11 12 13 14 15 16 17 18 19 20 21 22 23 24 25 26 27 28 29 30 31 32 33 34 35 36 37 38 39 40 41 42 43 44 45 46 47 48 49 50
000
ASUS43 KIND 180409
RWRIN

WEATHER ROUNDUP FOR INDIANA
NATIONAL WEATHER SERVICE INDIANAPOLIS IN
1200 AM EDT SAT APR 18 2015

NOTE: "FAIR" INDICATES FEW OR NO CLOUDS BELOW 12,000 FEET WITH NO
SIGNIFICANT WEATHER AND/OR OBSTRUCTIONS TO VISIBILITY.

* - STATION DOES NOT REPORT WEATHER SUCH AS PRECIPITATION OR FOG.

+ - STATION NOT QUALITY CONTROLLED BY THE NATIONAL WEATHER SERVICE.
    USE DATA WITH CAUTION...ESPECIALLY DEWPOINT AND RELATIVE
    HUMIDITY OBSERVATIONS.

INZ001>003-010>013-019-020-180500-
NORTHWEST INDIANA

CITY           SKY/WX    TMP DP  RH WIND       PRES   REMARKS
GARY /AIRPORT/ CLEAR     60  44  56 CALM      30.02S
KNOX *+        CLEAR     59  30  33 CALM      30.03S
MICHIGAN CITY+ CLOUDY    59  43  55 CALM      30.02F
MONTICELLO +   CLEAR     57  49  75 CALM      30.03S
RENSSELAER +   CLEAR     61  46  59 SW3       30.03F
VALPARAISO     PTCLDY    64  44  48 SE5       30.03S

$$

LMZ046-743>745-180500-
SOUTHERN LAKE MICHIGAN

STATION/POSITION TIME  TEMP WIND        PRES
                       AIR  DIR/SP/G
                 (UTC) (F)  (DEG/KT/KT) (MB)
BURNS HARBOR     0400   68  160/  5/  7 1016.9S
MICHIGAN CITY    0400   67  130/  6/  7   N/A
4NW MICH CITY    0400   61                N/A

$$

INZ004-005-014>016-021>024-180500-
NORTH CENTRAL INDIANA

CITY           SKY/WX    TMP DP  RH WIND       PRES   REMARKS
GOSHEN         CLEAR     56  47  71 S3        30.03S
LOGANSPORT +   CLEAR     59  45  58 S5        30.05S
PERU/GRISSOM   CLEAR     57  48  73 S7        30.03S
ROCHESTER +    CLEAR     59  50  72 CALM      30.05S
SOUTH BEND     PTCLDY    59  45  59 CALM      30.04R
WARSAW +       CLEAR     55  46  71 CALM      30.04S

$$

INZ006>009-017-018-025>027-180500-
NORTHEAST INDIANA

CITY           SKY/WX    TMP DP  RH WIND       PRES   REMARKS
ANGOLA *+      CLEAR     54  46  76 CALM      30.03F
AUBURN +       CLEAR     57  43  58 CALM      30.04S
FORT WAYNE     PTCLDY    57  46  66 S5        30.04S
HUNTINGTON +   CLEAR     55  46  71 CALM      30.04R

$$

INZ028-029-035-036-043>045-051>053-180500-
WEST CENTRAL INDIANA

CITY           SKY/WX    TMP DP  RH WIND       PRES   REMARKS
CRAWFORDSVL +  CLEAR     55  44  67 CALM      30.04F
GREENCASTLE +  CLEAR     55  43  62 CALM      30.04F
LAFAYETTE      CLEAR     55  47  74 W3        30.03S
TERRE HAUTE    CLEAR     57  52  83 CALM      30.03F

$$

INZ030>032-037>040-046>048-054>057-064-065-180500-
CENTRAL INDIANA

CITY           SKY/WX    TMP DP  RH WIND       PRES   REMARKS
CP ATTERBURY + PTCLDY    54  48  82 CALM      30.05S
FISHERS *+     CLEAR     54  50  87 CALM      30.05S
FRANKFORT +    CLEAR     55  50  83 CALM      30.06S
GREENWOOD *+   PTCLDY    59  43  55 CALM      30.05S
INDIANAPOLIS   CLEAR     62  44  51 CALM      30.03S
-EAGLE CREEK   CLEAR     58  51  78 CALM      30.04S
KOKOMO *+      CLEAR     55  46  71 CALM      30.04S
MARION +       CLEAR     55  47  72 S5        30.05S
MT COMFORT *+  CLEAR     55  39  54 CALM      30.05S
SHELBYVILLE    PTCLDY    59  46  62 E3        30.04S
ZIONSVILLE +   CLEAR     56  48  72 CALM      30.06S

$$

INZ033-034-041-042-049-050-058-059-180500-
EAST CENTRAL INDIANA

CITY           SKY/WX    TMP DP  RH WIND       PRES   REMARKS
MUNCIE         FAIR      57  44  62 CALM      30.05S

$$

INZ060-061-067>069-081>083-085>088-180500-
SOUTHWEST INDIANA

CITY           SKY/WX    TMP DP  RH WIND       PRES   REMARKS
EVANSVILLE     CLEAR     61  57  87 W3        30.04R FOG
HUNTINGBURG *+ CLEAR     63  55  77 CALM      30.02F
WASHINGTON +   CLEAR     60  55  85 CALM      30.01F

$$

INZ062-063-066-070>080-084-089>092-180500-
SOUTH CENTRAL AND SOUTHEAST INDIANA

CITY           SKY/WX    TMP DP  RH WIND       PRES   REMARKS
BEDFORD +      CLEAR     61  48  63 CALM      30.03F
BLOOMINGTON    CLEAR     54  50  86 CALM      30.04F
MADISON *+     PTCLDY    59  50  72 CALM      30.06S
NORTH VERNON + MOCLDY    57  55  94 CALM      30.05S

$$



USA.gov is the U.S. government's official web portal to all federal, state and local government web resources and services.